[[{"header":{"parameterUnit":"m.s-1","parameterCategory":1,"la1":30.2992,"la2":30.254,"lo1":-89.0895,"lo2":-89.0443,"dy":0.0025,"dx":0.0025,"nx":19,"ny":19,"refTime":"2026-04-08T09:00:00:Z","depth":0,"parameterNumber":2,"parameterNumberName":"U-component_of_WINDS"},"data":[0,0,0,-4.0847,-4.0848,-4.0839,-4.0838,-4.0873,-4.0874,0,0,0,0,0,0,0,0,0,0,0,-4.0877,-4.0878,-4.0847,-4.0848,-4.0839,-4.0838,-4.0873,-4.0874,0,0,0,0,0,0,0,0,0,0,0,-4.0877,-4.0878,-4.0879,-4.0848,-4.0839,-4.0838,-4.0873,-4.0864,0,0,0,0,0,0,0,0,0,0,-4.0865,-4.0918,-4.0878,-4.0879,-4.0848,-4.0839,-4.0838,-4.0862,-4.0864,-4.0897,0,-4.0933,0,-4.0904,-4.0879,-4.088,0,0,0,-4.0828,-4.0917,-4.089,-4.088,-4.0848,-4.0839,-4.0837,-4.0863,-4.0865,-4.09,-4.0933,-4.0933,-4.0905,-4.088,-4.088,-4.1133,-4.1136,0,0,-4.0828,-4.0891,-4.0889,-4.0893,-4.0896,-4.0838,-4.0837,-4.0864,-4.0904,-4.0933,-4.0933,-4.0905,-4.088,-4.0881,-4.1131,-4.1134,0,0,0,-4.0843,-4.0892,-4.0863,-4.0893,-4.0887,-4.0838,-4.0837,-4.0903,-4.0888,-4.0933,-4.0906,-4.0881,-4.0882,-4.1129,-4.1132,-4.1297,0,0,0,-4.0843,-4.09,-4.0864,-4.0902,-4.0888,-4.0895,-4.0877,-4.0886,-4.0887,-4.0906,-4.0881,-4.0883,-4.1126,-4.1131,-4.1287,-4.1365,0,0,0,-4.0869,-4.0903,-4.0911,-4.0905,-4.0903,-4.0893,-4.0879,-4.0885,-4.0872,-4.088,-4.0883,-4.1125,-4.113,-4.1279,-4.1351,-4.145,0,0,0,-4.0914,-4.1058,-4.0914,-4.1064,-4.0904,-4.0994,-4.0878,-4.0942,-4.0969,-4.0881,-4.1127,-4.1132,-4.1276,-4.1342,-4.1441,-4.1545,-4.1594,0,0,-4.113,-4.1086,-4.1169,-4.104,-4.1172,-4.0991,-4.1146,-4.1112,-4.1057,-4.1111,-4.1117,-4.129,-4.135,-4.1448,-4.1846,-4.1885,0,0,0,-4.1259,-4.1319,-4.134,-4.1368,-4.1345,-4.1331,-4.1267,-4.1254,-4.1297,-4.1097,-4.1351,-4.1384,-4.1439,-4.1486,-4.152,-4.1564,-4.1156,-4.1156,-4.1155,-4.1654,-4.1574,-4.1706,-4.1626,-4.1654,-4.1586,-4.1602,-4.1573,-4.1485,-4.1546,-4.1562,-4.1813,-4.1871,-4.1895,-4.1942,-4.161,-4.1611,-4.1611,-4.1612,-4.1963,-4.2037,-4.1915,-4.2,-4.1915,-4.1986,-4.1926,-4.1862,-4.1916,-4.1794,-4.1839,-4.1715,-4.1941,-4.1978,-4.1623,-4.1621,-4.162,-4.1619,-4.1618,-4.2214,-4.2235,-4.2216,-4.2247,-4.2281,-4.2194,-4.2252,-4.2172,-4.2098,-4.2143,-4.2151,-4.2148,-4.2136,-4.2152,-4.2153,-4.2154,-4.2155,-4.2155,-4.2156,-4.2482,-4.2455,-4.2512,-4.25,-4.2506,-4.2506,-4.2439,-4.2444,-4.2429,-4.2367,-4.2367,-4.2274,-4.1977,-4.1905,-4.2169,-4.2167,-4.2165,-4.2164,-4.2163,-4.2827,-4.2735,-4.2825,-4.2832,-4.281,-4.2849,-4.2746,-4.2764,-4.2757,-4.2788,-4.2685,-4.2478,-4.2428,-4.2401,-4.234,-4.2701,-4.2701,-4.2701,-4.2701,-4.3039,-4.3005,-4.3078,-4.3095,-4.3102,-4.3018,-4.3123,-4.3072,-4.3006,-4.2997,-4.2933,-4.2846,-4.2822,-4.2786,-4.275,-4.2693,-4.3135,-4.3135,-4.3136,-4.3247,-4.321,-4.3314,-4.3246,-4.3223,-4.3205,-4.3302,-4.3327,-4.3233,-4.3152,-4.2988,-4.297,-4.2828,-4.2786,-4.2703,-4.265,-4.2542,0,0]},{"header":{"parameterUnit":"m.s-1","parameterCategory":1,"la1":30.2992,"la2":30.254,"lo1":-89.0895,"lo2":-89.0443,"dy":0.0025,"dx":0.0025,"nx":19,"ny":19,"refTime":"2026-04-08T09:00:00:Z","depth":0,"parameterNumber":3,"parameterNumberName":"V-component_of_WINDS"},"data":[0,0,0,0.9529,0.9529,0.9507,0.9507,0.9465,0.9464,0,0,0,0,0,0,0,0,0,0,0,0.9529,0.9529,0.953,0.9529,0.9507,0.9507,0.9465,0.9464,0,0,0,0,0,0,0,0,0,0,0,0.953,0.9529,0.9529,0.9529,0.9507,0.9507,0.9465,0.9486,0,0,0,0,0,0,0,0,0,0,0.951,0.9504,0.9529,0.9529,0.9529,0.9507,0.9507,0.9487,0.9485,0.9469,0,0.9456,0,0.9459,0.9461,0.946,0,0,0,0.9533,0.9506,0.9506,0.9528,0.9528,0.9507,0.9518,0.9486,0.9483,0.9466,0.9455,0.9454,0.9459,0.946,0.946,0.9364,0.9363,0,0,0.9534,0.9521,0.9508,0.9504,0.9509,0.9519,0.9517,0.9484,0.9471,0.9455,0.9453,0.9458,0.946,0.946,0.9364,0.9363,0,0,0,0.9535,0.9522,0.9523,0.9505,0.9502,0.9518,0.9516,0.9472,0.9474,0.9453,0.9458,0.946,0.9459,0.9365,0.9364,0.932,0,0,0,0.9536,0.9522,0.9524,0.9515,0.9503,0.9487,0.9505,0.9476,0.9473,0.9458,0.946,0.9458,0.9366,0.9364,0.9323,0.93,0,0,0,0.9533,0.9522,0.9517,0.9515,0.9505,0.9488,0.9488,0.9476,0.9476,0.946,0.9458,0.9366,0.9365,0.9325,0.9304,0.9271,0,0,0,0.9526,0.9477,0.9516,0.9463,0.9505,0.9462,0.9489,0.9457,0.9438,0.9459,0.9366,0.9364,0.9326,0.9307,0.9274,0.924,0.9225,0,0,0.9456,0.9468,0.9438,0.9473,0.942,0.9467,0.9407,0.9401,0.941,0.9378,0.9376,0.9322,0.9305,0.9272,0.9149,0.9137,0,0,0,0.9411,0.9389,0.9378,0.9362,0.9358,0.9353,0.9358,0.9356,0.9331,0.9392,0.9302,0.9292,0.9273,0.9257,0.9247,0.9232,0.9357,0.9357,0.9357,0.9293,0.931,0.9261,0.9276,0.9259,0.9267,0.9255,0.9253,0.9273,0.9252,0.9242,0.9166,0.9147,0.9139,0.9123,0.9227,0.9226,0.9226,0.9226,0.9192,0.9163,0.9195,0.9159,0.9176,0.9145,0.9151,0.9167,0.914,0.9174,0.9158,0.9193,0.9126,0.9112,0.9223,0.9223,0.9224,0.9224,0.9224,0.9115,0.9105,0.9105,0.9084,0.9066,0.9082,0.9056,0.9073,0.9088,0.9073,0.9064,0.9064,0.9066,0.9068,0.9067,0.9067,0.9067,0.9067,0.9067,0.9035,0.9037,0.9014,0.9008,0.9,0.8992,0.9,0.8993,0.8988,0.9002,0.9002,0.9024,0.9117,0.914,0.9062,0.9063,0.9064,0.9064,0.9064,0.8924,0.8952,0.8916,0.8908,0.8903,0.8884,0.8907,0.889,0.8886,0.8873,0.8899,0.8966,0.8977,0.8985,0.9004,0.8896,0.8896,0.8896,0.8896,0.8858,0.8867,0.8834,0.8821,0.8811,0.8829,0.8786,0.8793,0.8803,0.8802,0.882,0.8847,0.8855,0.8862,0.8872,0.889,0.8756,0.8755,0.8755,0.879,0.8799,0.876,0.8774,0.8771,0.8768,0.8729,0.8711,0.8729,0.875,0.8801,0.8807,0.885,0.8863,0.8882,0.8899,0.8931,0,0]}]]